Location: Lichtensteig
(47.3376°N, 9.0841°E)
Time: 20:10:44
(UTC+00:00)

FENGYUN 1C DEB - Pass Details

Date: 28 September 2021
Orbit: 837 x 877 km, 98.7° (Epoch: 18 October)

Event Time Altitude Azimuth Distance (km) Brightness Sun altitude
Rises 19:19:00 0° 213° (SSW) 3,458 ? -22.4°
Reaches altitude 10° 19:22:21 10° 234° (SW) 2,528 ? -22.9°
Maximum altitude 19:25:47 16° 272° (W) 2,113 ? -23.5°
Drops below altitude 10° 19:29:14 10° 310° (NW) 2,539 ? -24.0°
Sets 19:32:38 0° 331° (NNW) 3,480 ? -24.5°
